Total_Precipitation_Accumulation
1.52 1.53 1.46 1.69 1.79 1.86 1.93 1.93 1.85 1.72 1.68 1.49 1.49 1.53 1.58 1.43 1.58 1.77 2.27 2.77 3.42 4.31 4.50 4.13 3.83 3.74 3.50 3.42 3.63 3.63 3.65 3.70 3.70 3.69 3.66 3.99 4.09 3.64 3.54 3.54 3.56 4.00 4.45
1.34 1.55 1.46 1.47 1.61 1.82 1.96 1.95 1.88 1.93 1.89 1.68 1.66 1.72 1.69 1.62 1.65 1.73 1.97 2.08 2.34 3.06 3.84 4.26 4.37 4.19 3.81 3.61 3.61 3.65 3.81 3.78 3.69 3.56 3.50 3.70 3.88 3.56 3.49 3.58 3.59 3.92 4.28
1.26 1.51 1.44 1.35 1.39 1.56 1.74 1.98 2.05 2.07 1.87 1.79 1.82 1.80 1.68 1.67 1.68 1.86 1.93 2.02 1.96 2.15 2.78 3.34 3.90 4.08 4.13 3.98 3.68 3.54 3.76 3.75 3.63 3.50 3.46 3.49 3.73 3.64 3.60 3.67 3.61 3.80 3.96
1.07 1.30 1.40 1.32 1.34 1.54 1.79 2.06 2.27 2.34 2.14 2.09 2.14 2.04 1.79 1.75 1.70 1.82 1.89 2.03 2.15 1.93 1.99 2.21 2.71 3.34 3.88 4.00 3.99 3.86 3.91 3.78 3.51 3.38 3.22 3.15 3.43 3.62 3.72 3.72 3.61 3.69 3.78
0.99 1.24 1.48 1.52 1.51 1.71 1.86 1.86 2.14 2.31 2.41 2.31 2.15 2.02 1.94 1.92 1.90 1.84 1.98 2.00 2.11 2.05 1.87 1.63 1.74 2.28 2.98 3.47 3.77 3.91 4.16 4.02 3.64 3.44 3.05 2.83 3.01 3.32 3.69 3.45 3.38 3.40 3.62
1.22 1.44 1.70 1.72 1.79 1.89 2.02 2.25 2.54 2.54 2.47 2.50 2.22 1.98 1.85 1.87 1.96 2.08 2.05 2.05 2.14 1.96 1.79 1.64 1.61 1.62 2.20 2.81 3.21 3.65 4.02 4.10 3.81 3.71 3.29 2.83 2.81 3.07 3.48 3.32 3.19 3.25 3.50
1.41 1.64 1.84 2.05 2.18 2.09 2.13 2.42 2.74 2.84 2.60 2.45 2.58 2.44 2.23 2.02 2.02 2.01 2.00 2.07 2.13 2.06 1.97 1.91 1.87 1.75 1.86 2.16 2.48 3.05 3.58 3.89 3.94 3.87 3.59 3.17 2.95 2.99 3.15 3.03 2.95 3.19 3.53
1.49 1.53 1.81 1.99 2.08 2.23 2.27 2.38 2.71 3.05 2.78 2.49 2.78 3.25 3.02 2.77 2.22 1.88 2.02 2.06 2.17 2.18 2.12 1.99 2.02 1.93 1.92 2.09 1.87 2.08 2.72 3.38 3.87 3.96 3.73 3.46 3.25 3.03 3.09 2.97 2.82 2.92 3.19
1.84 1.80 1.86 2.00 2.09 2.30 2.46 2.49 2.57 2.93 2.97 2.69 2.67 3.33 3.40 3.23 2.94 2.37 2.00 2.07 2.25 2.34 2.36 2.28 2.13 2.07 1.96 2.08 1.90 1.64 1.96 2.42 3.17 3.69 3.90 3.70 3.49 3.20 3.12 3.04 2.97 2.99 3.03
2.16 2.16 2.18 2.30 2.24 2.24 2.35 2.33 2.32 2.59 2.95 2.98 2.76 2.59 2.58 2.78 3.23 2.97 2.36 2.18 2.21 2.23 2.38 2.24 2.24 2.28 2.20 2.13 2.00 1.66 1.50 1.71 2.44 3.31 3.89 3.80 3.63 3.48 3.29 3.17 3.03 2.97 2.93
2.80 2.76 2.68 2.51 2.31 2.26 2.33 2.38 2.39 2.51 2.64 2.81 2.79 2.60 2.52 2.49 2.46 2.80 2.80 2.52 2.28 2.16 2.25 2.29 2.32 2.34 2.32 2.26 2.18 1.79 1.43 1.32 1.72 2.62 3.37 3.63 3.62 3.56 3.50 3.41 3.20 2.97 2.74
2.82 2.75 2.56 2.28 2.11 2.07 2.16 2.33 2.36 2.44 2.46 2.54 2.52 2.36 2.35 2.38 2.42 2.66 2.68 2.62 2.57 2.24 2.06 2.09 2.16 2.22 2.13 2.13 2.00 2.03 1.63 1.35 1.38 1.87 2.47 2.97 3.33 3.60 3.61 3.69 3.48 3.17 2.87
2.17 2.18 2.16 2.13 2.04 1.94 2.00 2.23 2.33 2.40 2.40 2.39 2.31 2.22 2.23 2.13 2.23 2.55 2.77 2.67 2.53 2.25 2.08 1.93 1.97 2.00 1.85 1.92 2.01 2.19 1.85 1.59 1.45 1.55 1.85 2.22 2.59 3.05 3.49 3.81 3.89 3.73 3.53
1.96 1.97 1.99 2.02 1.98 1.93 1.93 2.05 2.19 2.29 2.30 2.24 2.17 2.30 2.31 2.10 2.19 2.27 2.46 2.73 2.62 2.39 2.26 1.99 1.85 1.74 1.76 1.79 2.01 2.24 1.70 1.64 1.51 1.42 1.47 1.69 2.02 2.34 2.73 3.24 3.67 3.79 3.75
1.58 1.70 1.81 1.89 1.83 1.81 1.81 1.96 2.10 2.11 2.18 2.27 2.30 2.31 2.33 2.25 2.26 2.28 2.46 2.67 2.77 2.61 2.46 2.16 1.93 1.72 1.76 1.82 2.08 1.91 1.64 1.67 1.55 1.45 1.44 1.47 1.63 1.90 2.15 2.33 2.60 2.73 2.85
1.45 1.48 1.47 1.51 1.50 1.54 1.54 1.63 1.79 1.87 1.88 1.98 2.03 2.10 2.12 2.11 2.23 2.22 2.35 2.55 2.61 2.61 2.53 2.24 2.05 1.92 1.92 1.86 2.01 1.80 1.74 1.92 1.72 1.53 1.45 1.45 1.48 1.62 1.72 1.81 1.90 1.95 1.96
1.16 1.19 1.12 1.15 1.26 1.30 1.23 1.30 1.40 1.46 1.55 1.65 1.66 1.73 1.81 1.83 2.02 2.05 2.17 2.34 2.47 2.50 2.32 2.16 2.11 2.05 2.02 2.07 2.02 1.86 1.74 1.75 1.75 1.62 1.45 1.40 1.44 1.51 1.57 1.68 1.74 1.70 1.69
0.92 0.91 0.87 0.88 0.98 1.13 1.18 1.26 1.31 1.29 1.36 1.47 1.57 1.59 1.57 1.61 1.74 1.82 1.93 2.05 2.24 2.37 2.30 2.22 2.20 2.02 1.85 1.92 2.02 2.02 1.94 1.83 1.86 1.91 1.76 1.64 1.63 1.58 1.51 1.60 1.69 1.65 1.60
0.89 0.85 0.79 0.82 0.88 0.97 1.14 1.23 1.23 1.22 1.20 1.22 1.30 1.33 1.35 1.45 1.61 1.67 1.71 1.87 2.06 2.17 2.30 2.26 2.25 2.08 1.89 1.81 1.92 1.89 1.91 2.10 2.00 2.07 2.21 2.07 1.88 1.76 1.65 1.64 1.66 1.61 1.54
0.94 0.91 0.81 0.79 0.88 0.99 1.09 1.21 1.21 1.14 1.11 1.14 1.20 1.18 1.13 1.18 1.33 1.49 1.60 1.81 2.03 2.22 2.34 2.33 2.35 2.20 2.07 1.90 1.92 2.05 2.09 2.12 2.15 1.93 2.01 2.12 2.15 2.02 1.89 1.74 1.73 1.71 1.69
0.93 0.92 0.89 0.90 0.95 0.98 1.00 1.18 1.19 1.11 1.11 1.08 1.09 1.13 1.12 1.15 1.20 1.28 1.29 1.51 1.76 2.07 2.26 2.35 2.36 2.31 2.16 2.02 1.88 2.05 2.11 2.20 2.30 2.25 2.16 2.06 2.11 1.95 1.88 1.88 1.81 1.79 1.83
0.96 0.94 0.93 0.96 0.94 0.86 1.09 1.21 1.19 1.18 1.18 1.20 1.14 1.11 1.08 1.09 1.20 1.24 1.22 1.28 1.48 1.69 1.90 2.00 2.04 2.04 2.03 2.05 2.15 2.16 2.12 2.14 2.21 2.23 2.12 2.22 2.26 2.20 1.97 1.85 1.91 1.87 1.88
0.91 0.91 0.91 0.91 0.87 0.88 0.96 0.96 1.04 1.11 1.23 1.23 1.15 1.20 1.20 1.09 1.16 1.18 1.28 1.27 1.24 1.32 1.52 1.71 1.77 1.75 1.82 1.85 2.11 2.14 2.12 2.12 2.02 2.07 2.00 2.14 2.12 2.13 2.02 2.00 2.11 1.93 1.92
0.82 0.86 0.96 0.96 0.86 0.79 0.87 0.83 0.90 0.98 1.11 1.17 1.12 1.16 1.37 1.36 1.24 1.27 1.33 1.39 1.28 1.13 1.19 1.29 1.46 1.60 1.66 1.83 2.14 2.36 2.30 2.05 1.95 1.95 1.89 2.03 2.00 1.99 1.94 1.88 2.03 1.98 1.88
0.68 0.70 0.76 0.85 0.83 0.81 0.85 0.84 0.87 0.90 0.98 1.00 1.05 1.16 1.27 1.34 1.32 1.35 1.28 1.31 1.34 1.20 1.19 1.29 1.32 1.45 1.63 1.79 2.05 2.34 2.40 2.27 2.06 1.92 1.79 1.82 1.91 1.99 2.06 1.93 1.89 1.99 1.96
0.66 0.69 0.70 0.69 0.68 0.72 0.81 0.83 0.91 0.89 0.92 0.87 0.92 1.12 1.34 1.29 1.28 1.33 1.28 1.34 1.43 1.25 1.18 1.29 1.29 1.35 1.42 1.66 2.06 2.24 2.38 2.35 2.20 2.11 1.90 1.87 1.94 2.05 2.37 2.25 1.98 1.89 1.91